CW1020 Weather Reports


time (UTC)temp
C
wind
direction
speed
KPH
gust
KPH
rain 1hr
cm
rain 24hr
cm
rain mn
cm
humidity
%
barometer
mb
20260906152503 14 0 0.0 0.0 0.00 0.00 0.00 66 1018.8
20260906152002 14 0 0.0 0.0 0.00 0.00 0.00 67 1018.9
20260906151503 13 0 0.0 0.0 0.00 0.00 0.00 67 1018.8
20260906151003 13 0 0.0 0.0 0.00 0.00 0.00 67 1018.8
20260906150503 13 40 0.0 1.6 0.00 0.00 0.00 68 1018.7
20260906150002 13 45 0.0 1.6 0.00 0.00 0.00 69 1018.7
20260906145503 12 0 0.0 0.0 0.00 0.00 0.00 70 1018.7
20260906145003 12 0 0.0 0.0 0.00 0.00 0.00 70 1018.9
20260906144502 12 0 0.0 0.0 0.00 0.00 0.00 70 1019.0
20260906144003 12 57 0.0 1.6 0.00 0.00 0.00 71 1019.1
20260906143502 12 0 0.0 0.0 0.00 0.00 0.00 71 1019.0
20260906143003 12 0 0.0 0.0 0.00 0.00 0.00 71 1019.0
20260906142503 12 0 0.0 0.0 0.00 0.00 0.00 71 1019.0
20260906142002 12 0 0.0 0.0 0.00 0.00 0.00 70 1018.8
20260906141502 12 0 0.0 0.0 0.00 0.00 0.00 71 1018.8
20260906141003 12 59 0.0 1.6 0.00 0.00 0.00 71 1018.7
20260906140503 12 60 0.0 1.6 0.00 0.00 0.00 71 1018.6
20260906140002 12 0 0.0 0.0 0.00 0.00 0.00 71 1018.4
20260906135503 12 0 0.0 0.0 0.00 0.00 0.00 70 1018.4
20260906134502 12 0 0.0 0.0 0.00 0.00 0.00 69 1018.5
20260906133503 12 0 0.0 0.0 0.00 0.00 0.00 69 1018.3
20260906133003 12 0 1.6 0.0 0.00 0.00 0.00 69 1018.2
20260906132503 12 61 1.6 3.2 0.00 0.00 0.00 69 1018.1
20260906132002 12 64 0.0 3.2 0.00 0.00 0.00 70 1018.2
20260906131503 12 69 0.0 1.6 0.00 0.00 0.00 69 1018.1
20260906130502 12 69 0.0 1.6 0.00 0.00 0.00 69 1018.2
20260906130003 12 0 0.0 0.0 0.00 0.00 0.00 69 1018.2
20260906125503 12 0 0.0 0.0 0.00 0.00 0.00 68 1018.0
20260906125002 12 0 0.0 0.0 0.00 0.00 0.00 68 1017.9
20260906124003 12 68 0.0 1.6 0.00 0.00 0.00 68 1018.0
20260906123502 12 71 0.0 1.6 0.00 0.00 0.00 68 1018.0
20260906123002 12 0 0.0 0.0 0.00 0.00 0.00 67 1017.9
20260906122503 12 0 0.0 0.0 0.00 0.00 0.00 67 1017.9
20260906122002 12 0 0.0 0.0 0.00 0.00 0.00 67 1018.0
20260906121502 12 0 0.0 0.0 0.00 0.00 0.00 67 1018.0
20260906121002 12 0 0.0 0.0 0.00 0.00 0.00 67 1018.0
20260906120503 12 74 0.0 1.6 0.00 0.00 0.00 68 1018.1
20260906115502 12 0 0.0 0.0 0.00 0.00 0.00 67 1018.2
20260906115003 12 0 0.0 0.0 0.00 0.00 0.00 66 1018.1
20260906114502 12 0 0.0 0.0 0.00 0.00 0.00 66 1018.1
20260906113503 13 0 0.0 0.0 0.00 0.00 0.00 66 1018.2
20260906113003 13 0 0.0 0.0 0.00 0.00 0.00 66 1018.2
20260906112002 13 0 0.0 0.0 0.00 0.00 0.00 66 1018.1
20260906111503 13 0 0.0 0.0 0.00 0.00 0.00 66 1018.1
20260906110502 13 0 0.0 0.0 0.00 0.00 0.00 65 1018.2
20260906110003 13 0 0.0 0.0 0.00 0.00 0.00 65 1018.2
20260906105502 13 0 0.0 0.0 0.00 0.00 0.00 66 1018.2
20260906104503 13 0 0.0 0.0 0.00 0.00 0.00 66 1018.3
20260906104003 13 0 0.0 0.0 0.00 0.00 0.00 66 1018.2
20260906103502 13 0 0.0 0.0 0.00 0.00 0.00 66 1018.3
20260906103003 13 78 0.0 1.6 0.00 0.00 0.00 66 1018.3
20260906102002 13 77 0.0 1.6 0.00 0.00 0.00 66 1018.3
20260906101503 13 77 0.0 1.6 0.00 0.00 0.00 67 1018.4
20260906101003 13 0 0.0 0.0 0.00 0.00 0.00 66 1018.4
20260906100502 13 0 0.0 0.0 0.00 0.00 0.00 66 1018.3
20260906100003 13 0 0.0 0.0 0.00 0.00 0.00 66 1018.4
20260906095503 13 0 0.0 0.0 0.00 0.00 0.00 66 1018.4
20260906095002 13 0 0.0 0.0 0.00 0.00 0.00 67 1018.4
20260906094504 12 0 0.0 0.0 0.00 0.00 0.00 67 1018.3
20260906094003 12 0 0.0 0.0 0.00 0.00 0.00 67 1018.3
20260906093503 12 0 0.0 0.0 0.00 0.00 0.00 67 1018.3
20260906093003 12 77 0.0 1.6 0.00 0.00 0.00 67 1018.3
20260906092003 12 0 0.0 0.0 0.00 0.00 0.00 66 1018.3
20260906091502 12 0 0.0 0.0 0.00 0.00 0.00 66 1018.4
20260906090503 12 0 0.0 0.0 0.00 0.00 0.00 66 1018.3
20260906085503 13 0 0.0 0.0 0.00 0.00 0.00 65 1018.4
20260906085003 13 0 0.0 0.0 0.00 0.00 0.00 65 1018.4
20260906084503 13 0 0.0 0.0 0.00 0.00 0.00 64 1018.3
20260906084003 13 0 0.0 0.0 0.00 0.00 0.00 64 1018.3
20260906083503 13 0 0.0 0.0 0.00 0.00 0.00 64 1018.2
20260906083002 13 0 0.0 0.0 0.00 0.00 0.00 64 1018.3
20260906082503 13 0 0.0 0.0 0.00 0.00 0.00 64 1018.2
20260906082003 13 0 0.0 0.0 0.00 0.00 0.00 64 1018.2
20260906081502 13 0 0.0 0.0 0.00 0.00 0.00 63 1018.3
20260906080003 13 0 0.0 0.0 0.00 0.00 0.00 63 1018.3
20260906075503 13 0 0.0 0.0 0.00 0.00 0.00 63 1018.3
20260906075003 13 0 0.0 0.0 0.00 0.00 0.00 63 1018.3
20260906074503 13 0 0.0 0.0 0.00 0.00 0.00 62 1018.2
20260906074002 13 0 0.0 0.0 0.00 0.00 0.00 62 1018.3
20260906073503 14 0 0.0 0.0 0.00 0.00 0.00 62 1018.3
20260906072503 14 0 0.0 0.0 0.00 0.00 0.00 61 1018.3
20260906071503 14 0 0.0 0.0 0.00 0.00 0.00 61 1018.4
20260906071003 14 0 0.0 0.0 0.00 0.00 0.00 61 1018.4
20260906070005 15 74 0.0 1.6 0.00 0.00 0.00 60 1018.5
20260906065003 15 0 0.0 0.0 0.00 0.00 0.00 60 1018.4
20260906064503 15 0 0.0 0.0 0.00 0.00 0.00 59 1018.4
20260906063003 15 79 0.0 1.6 0.00 0.00 0.00 59 1018.4
20260906062503 15 0 0.0 0.0 0.00 0.00 0.00 59 1018.4
20260906061503 15 74 1.6 3.2 0.00 0.00 0.00 59 1018.4
20260906061003 15 72 0.0 4.8 0.00 0.00 0.00 58 1018.5
20260906060503 15 77 0.0 1.6 0.00 0.00 0.00 58 1018.3
20260906060003 15 0 0.0 0.0 0.00 0.00 0.00 58 1018.3
20260906055503 16 0 0.0 0.0 0.00 0.00 0.00 57 1018.4
20260906055003 16 0 0.0 0.0 0.00 0.00 0.00 57 1018.4
20260906054502 16 0 0.0 0.0 0.00 0.00 0.00 56 1018.4
20260906054003 16 0 0.0 0.0 0.00 0.00 0.00 56 1018.4
20260906053503 16 77 1.6 3.2 0.00 0.00 0.00 56 1018.5
20260906053003 16 76 1.6 3.2 0.00 0.00 0.00 56 1018.6
20260906052503 16 72 0.0 3.2 0.00 0.00 0.00 56 1018.6
20260906051503 16 0 0.0 0.0 0.00 0.00 0.00 55 1018.6
20260906051003 16 0 0.0 0.0 0.00 0.00 0.00 54 1018.7
20260906050502 17 0 0.0 0.0 0.00 0.00 0.00 54 1018.7
20260906050003 17 0 0.0 0.0 0.00 0.00 0.00 54 1018.7
20260906045503 17 74 0.0 1.6 0.00 0.00 0.00 53 1018.6
20260906045002 17 0 0.0 0.0 0.00 0.00 0.00 53 1018.7
20260906044503 17 0 0.0 0.0 0.00 0.00 0.00 53 1018.7
20260906044003 17 0 1.6 0.0 0.00 0.00 0.00 52 1018.7
20260906043503 17 72 1.6 3.2 0.00 0.00 0.00 53 1018.7
20260906043004 17 77 3.2 3.2 0.00 0.00 0.00 52 1018.7
20260906042503 17 78 1.6 4.8 0.00 0.00 0.00 52 1018.7
20260906042002 18 79 0.0 3.2 0.00 0.00 0.00 51 1018.7
20260906041503 18 114 0.0 3.2 0.00 0.00 0.00 51 1018.7
20260906040003 18 0 0.0 0.0 0.00 0.00 0.00 50 1018.4
20260906035503 18 0 0.0 0.0 0.00 0.00 0.00 50 1018.4
20260906034503 18 0 0.0 0.0 0.00 0.00 0.00 50 1018.4
20260906034004 19 0 0.0 0.0 0.00 0.00 0.00 49 1018.4
20260906033503 19 0 0.0 0.0 0.00 0.00 0.00 49 1018.3
20260906033003 19 145 1.6 1.6 0.00 0.00 0.00 48 1018.3
20260906032502 19 143 1.6 3.2 0.00 0.00 0.00 48 1018.1
20260906032003 19 148 0.0 4.8 0.00 0.00 0.00 48 1018.0
20260906031503 20 140 0.0 1.6 0.00 0.00 0.00 47 1018.0
20260906031003 20 144 1.6 3.2 0.00 0.00 0.00 47 1017.9
20260906030003 20 193 1.6 6.4 0.00 0.00 0.00 46 1017.7
20260906025503 20 197 3.2 1.6 0.00 0.00 0.00 46 1017.6
20260906025003 20 196 3.2 4.8 0.00 0.00 0.00 45 1017.6
20260906024503 20 198 3.2 6.4 0.00 0.00 0.00 45 1017.6
20260906024003 20 200 3.2 4.8 0.00 0.00 0.00 45 1017.5
20260906023502 21 200 3.2 4.8 0.00 0.00 0.00 44 1017.5
20260906022503 21 202 4.8 6.4 0.00 0.00 0.00 43 1017.4
20260906021503 21 199 6.4 8.0 0.00 0.00 0.00 43 1017.3
20260906020503 21 221 8.0 11.3 0.00 0.00 0.00 43 1017.4
20260906020003 21 229 6.4 12.9 0.00 0.00 0.00 42 1017.4
20260906014003 22 239 4.8 12.9 0.00 0.00 0.00 41 1017.4
20260906013503 22 231 6.4 11.3 0.00 0.00 0.00 40 1017.5
20260906013003 23 235 9.7 14.5 0.00 0.00 0.00 40 1017.5
20260906012503 23 242 11.3 17.7 0.00 0.00 0.00 40 1017.5
20260906012003 23 229 14.5 16.1 0.00 0.00 0.00 40 1017.5
20260906011503 23 233 14.5 24.1 0.00 0.00 0.00 39 1017.4
20260906011003 23 236 12.9 24.1 0.00 0.00 0.00 39 1017.5
20260906010503 23 241 14.5 20.9 0.00 0.00 0.00 39 1017.4
20260906010004 23 234 16.1 24.1 0.00 0.00 0.00 38 1017.3
20260906005503 23 239 16.1 24.1 0.00 0.00 0.00 38 1017.4
20260906005003 23 233 16.1 24.1 0.00 0.00 0.00 37 1017.3
20260906004503 23 232 16.1 29.0 0.00 0.00 0.00 36 1017.2
20260906002004 24 251 9.7 16.1 0.00 0.00 0.00 33 1017.3
20260906001503 24 241 11.3 19.3 0.00 0.00 0.00 32 1017.2
20260906000503 24 239 14.5 20.9 0.00 0.00 0.00 33 1017.2
20260905235503 24 241 12.9 25.7 0.00 0.00 0.00 34 1017.0
20260905234503 25 241 12.9 24.1 0.00 0.00 0.00 34 1016.9
20260905234003 25 245 12.9 24.1 0.00 0.00 0.00 33 1016.9
20260905233503 25 239 14.5 20.9 0.00 0.00 0.00 33 1016.9
20260905233003 25 248 16.1 24.1 0.00 0.00 0.00 33 1017.0
20260905232503 25 243 17.7 25.7 0.00 0.00 0.00 33 1016.9
20260905232004 25 244 16.1 27.4 0.00 0.00 0.00 33 1016.8
20260905231503 25 241 16.1 22.5 0.00 0.00 0.00 33 1016.8
20260905231003 25 237 17.7 25.7 0.00 0.00 0.00 32 1016.9
20260905230503 25 236 19.3 24.1 0.00 0.00 0.00 32 1016.8
20260905230004 25 241 20.9 29.0 0.00 0.00 0.00 33 1016.9
20260905225503 25 241 19.3 35.4 0.00 0.00 0.00 33 1016.8
20260905225003 25 243 19.3 29.0 0.00 0.00 0.00 32 1016.9
20260905224503 25 242 19.3 30.6 0.00 0.00 0.00 33 1016.8
20260905224003 25 236 17.7 32.2 0.00 0.00 0.00 32 1016.9
20260905223503 25 245 17.7 32.2 0.00 0.00 0.00 32 1017.0
20260905223003 25 244 17.7 27.4 0.00 0.00 0.00 32 1016.9
20260905222003 25 236 16.1 30.6 0.00 0.00 0.00 31 1016.9
20260905221003 25 241 19.3 30.6 0.00 0.00 0.00 32 1016.8
20260905220003 26 242 16.1 32.2 0.00 0.00 0.00 31 1016.8
20260905215504 26 238 16.1 32.2 0.00 0.00 0.00 30 1016.8
20260905214503 26 243 14.5 24.1 0.00 0.00 0.00 30 1016.9
20260905214004 25 242 12.9 20.9 0.00 0.00 0.00 32 1016.9
20260905213503 25 251 14.5 25.7 0.00 0.00 0.00 32 1017.1
20260905212502 25 242 17.7 24.1 0.00 0.00 0.00 32 1017.2
20260905211502 25 243 14.5 29.0 0.00 0.00 0.00 32 1017.3
20260905210502 25 238 17.7 25.7 0.00 0.00 0.00 33 1017.4
20260905210002 25 238 14.5 24.1 0.00 0.00 0.00 33 1017.6
20260905205502 25 238 14.5 25.7 0.00 0.00 0.00 33 1017.5
20260905205002 25 239 14.5 27.4 0.00 0.00 0.00 33 1017.5
20260905204502 25 238 12.9 29.0 0.00 0.00 0.00 34 1017.6
20260905204002 25 237 14.5 20.9 0.00 0.00 0.00 34 1017.6
20260905203502 25 241 16.1 20.9 0.00 0.00 0.00 34 1017.6
20260905202502 25 238 14.5 25.7 0.00 0.00 0.00 34 1017.8
20260905202002 25 239 16.1 24.1 0.00 0.00 0.00 34 1017.8
20260905201503 25 241 12.9 20.9 0.00 0.00 0.00 33 1017.8
20260905200502 24 239 14.5 20.9 0.00 0.00 0.00 34 1018.0
20260905200003 24 237 12.9 20.9 0.00 0.00 0.00 34 1018.1
20260905195002 24 244 11.3 22.5 0.00 0.00 0.00 35 1017.9
20260905194502 24 241 12.9 20.9 0.00 0.00 0.00 36 1018.0
20260905194002 24 235 12.9 24.1 0.00 0.00 0.00 37 1018.1
20260905193502 24 238 11.3 24.1 0.00 0.00 0.00 37 1018.1
20260905193002 24 245 12.9 20.9 0.00 0.00 0.00 36 1017.9
20260905192502 24 241 11.3 17.7 0.00 0.00 0.00 37 1018.0
20260905192002 24 245 9.7 22.5 0.00 0.00 0.00 38 1018.1
20260905191502 23 248 9.7 16.1 0.00 0.00 0.00 39 1018.1
20260905191002 23 240 9.7 16.1 0.00 0.00 0.00 39 1018.2
20260905190502 23 236 8.0 22.5 0.00 0.00 0.00 41 1018.2
20260905190003 23 251 8.0 11.3 0.00 0.00 0.00 40 1018.3
20260905185502 23 242 9.7 17.7 0.00 0.00 0.00 42 1018.3
20260905185003 23 244 8.0 14.5 0.00 0.00 0.00 43 1018.4
20260905184502 23 241 8.0 14.5 0.00 0.00 0.00 44 1018.4
20260905184002 23 235 9.7 17.7 0.00 0.00 0.00 44 1018.4
20260905183502 23 238 8.0 14.5 0.00 0.00 0.00 44 1018.4
20260905183003 23 242 6.4 14.5 0.00 0.00 0.00 44 1018.4
20260905182502 23 253 6.4 16.1 0.00 0.00 0.00 43 1018.4
20260905182003 23 250 3.2 17.7 0.00 0.00 0.00 43 1018.4
20260905181002 23 0 1.6 0.0 0.00 0.00 0.00 42 1018.5
20260905180502 23 335 1.6 6.4 0.00 0.00 0.00 43 1018.6
20260905180003 23 321 1.6 9.7 0.00 0.00 0.00 45 1018.6
20260905175502 23 314 3.2 8.0 0.00 0.00 0.00 46 1018.3
20260905175002 22 326 3.2 8.0 0.00 0.00 0.00 48 1018.4
20260905174502 22 348 1.6 6.4 0.00 0.00 0.00 50 1018.5
20260905174002 21 303 0.0 4.8 0.00 0.00 0.00 51 1018.4
20260905173502 21 0 1.6 0.0 0.00 0.00 0.00 51 1018.4
20260905173003 21 243 3.2 3.2 0.00 0.00 0.00 52 1018.4
20260905172503 21 251 1.6 4.8 0.00 0.00 0.00 52 1018.4
20260905172003 21 6 3.2 6.4 0.00 0.00 0.00 54 1018.6
20260905171002 20 340 1.6 3.2 0.00 0.00 0.00 57 1018.6
20260905170502 20 0 1.6 0.0 0.00 0.00 0.00 58 1018.5
20260905170002 19 306 1.6 4.8 0.00 0.00 0.00 59 1018.5
20260905165502 19 318 0.0 3.2 0.00 0.00 0.00 60 1018.5
20260905164502 18 0 1.6 0.0 0.00 0.00 0.00 62 1018.4
20260905163503 17 336 1.6 3.2 0.00 0.00 0.00 66 1018.5
20260905163003 17 339 0.0 3.2 0.00 0.00 0.00 69 1018.5
20260905162502 17 329 0.0 1.6 0.00 0.00 0.00 70 1018.4
20260905162002 16 339 0.0 1.6 0.00 0.00 0.00 72 1018.4
20260905161502 16 339 0.0 1.6 0.00 0.00 0.00 72 1018.5
20260905160502 16 0 0.0 0.0 0.00 0.00 0.00 75 1018.5
20260905160003 15 0 0.0 0.0 0.00 0.00 0.00 77 1018.6
20260905155502 15 340 0.0 1.6 0.00 0.00 0.00 79 1018.7
20260905155003 15 338 0.0 3.2 0.00 0.00 0.00 83 1018.8
20260905154502 14 337 0.0 3.2 0.00 0.00 0.00 86 1018.6
20260905154003 13 355 0.0 1.6 0.00 0.00 0.00 89 1018.6
20260905153002 12 6 0.0 1.6 0.00 0.00 0.00 90 1018.4